Weather Roundup
Issued by NWS Corpus Christi, TX

Home | Current Version | Previous Version | Text Only | Print | Product List | Glossary On
Versions: 1 2 3 4 5 6 7 8 9 10 11 12 13 14 15 16 17 18 19 20 21 22 23 24 25 26 27 28 29 30 31 32 33 34 35 36 37 38 39 40 41 42 43 44 45 46 47 48 49 50
000
ASUS44 KCRP 240310
HRRCRP

SOUTH TEXAS REGIONAL WEATHER ROUNDUP
NATIONAL WEATHER SERVICE CORPUS CHRISTI TX
1000 PM CDT WED JUL 23 2014


TXZ229>244-240400-
...CORPUS CHRISTI AREA OBSERVATIONS...

CITY           SKY/WX    TMP DP  RH WIND       PRES   REMARKS
CORPUS CHRISTI MOCLDY    82  74  76 SE8       29.97R
NAS CORPUS CHR MOCLDY    83  78  85 SE12      29.98R HX  93
ROCKPORT       PTCLDY    83  75  77 SE12      29.97R HX  90
KINGSVILLE NAS MOCLDY    83  77  82 SE10      29.98R HX  92
ALICE          PTCLDY    83  72  69 SE13      29.97R
FALFURRIAS     CLEAR     81  72  73 E6        29.98R
$$

...VICTORIA AREA OBSERVATIONS...

CITY           SKY/WX    TMP DP  RH WIND       PRES   REMARKS
VICTORIA       PTCLDY    84  73  69 SE6       30.00R HX  90
BEEVILLE       FAIR      83  70  64 SE6       29.99R
PLEASANTON     CLEAR     83  71  64 N3        29.97R
SAN ANTONIO    MOCLDY    91  66  43 NE10      30.02R HX  93
$$

...LAREDO AREA OBSERVATIONS...

CITY           SKY/WX    TMP DP  RH WIND       PRES   REMARKS
LAREDO         MOCLDY    95  65  37 NE7       29.98R HX  97
COTULLA        CLEAR     89  64  43 E6        29.95R HX  90
DEL RIO        MOCLDY    94  61  33 E6        29.98R HX  94
MCALLEN        CLEAR     86  71  60 SE14      29.98R HX  91
HEBBRONVILLE   CLEAR     86  68  54 E8        30.00R HX  90
$$

...OTHER TEXAS OBSERVATIONS...

CITY           SKY/WX    TMP DP  RH WIND       PRES   REMARKS
BROWNSVILLE    PTCLDY    81  74  79 SE7       29.99R
HOUSTON        CLOUDY    84  72  67 NE5       30.02R
COL. STATION   CLOUDY    86  70  58 NE14      30.05R HX  90
AUSTIN         MOCLDY    85  70  60 E6        30.02R
WACO           CLOUDY    85  68  56 E9        30.06R
FORT WORTH     CLOUDY    79  67  66 E12       30.08R
WICHITA FALLS    N/A     82  68  62 CALM      30.04S
LUBBOCK        CLEAR     80  58  46 E6        30.18S
EL PASO        PTCLDY    88  46  23 E9        30.14R
$$

...MARINE OBSERVATIONS...

STATION/POSITION TIME  SKY/WX   TEMP    WIND        PRES    VSBY  WAVE   SWELL
                                AIR SEA DIR/SP/G                  HT/PER HT/PER
                 (UTC)          (F)     (DEG/KT/KT) (MB)    (MI)  (FT/S) (FT/S)
PORT ARANSAS     0300            83 88  130/ 11/ 13 1015.8R
BUOY 90 E PORT A 0300            83 85   90/  4/  4 1016.2R         1/ 5   2/ 5
BUOY 45 SE BAFFI 0300            83 83  120/ 10/ 10 1015.4R         1/ 5
BUOY 200 E PT IS 0300            84 86   70/  2/  4 1016.3R         1/ 5   2/ 5
BUOY 15 E GALVES NOT AVBL
$$


USA.gov is the U.S. government's official web portal to all federal, state and local government web resources and services.